FDX9295 CYQM-CYMX

Flight info

Callsign FDX9295
Flight time N/A
Altitude 38000
Route HUL DCT VIVIL DCT ROGSA DCT URVAS DCT DAXES DCT VIBNU
Aircraft B752/M-SDE2E3FGHIJ3J4J7RWXY/LB1

Departure

Time 2026-04-27 14:13
Airport Greater Moncton Roméo LeBlanc International Airport (CYQM)

Arrival

Time N/A
Airport Montreal Mirabel International Airport (CYMX)
Time Latitude Longitude Altitude Speed Heading
2026-04-27 13:58 46.10473 -64.67913 242 ft 0 kts 178°
2026-04-27 14:00 46.10472 -64.67913 242 ft 0 kts 178°
2026-04-27 14:00 46.10473 -64.67913 242 ft 1 kts 178°
2026-04-27 14:01 46.10481 -64.67913 242 ft 2 kts 176°
2026-04-27 14:01 46.10499 -64.67917 242 ft 3 kts 163°
2026-04-27 14:01 46.10517 -64.67929 242 ft 3 kts 148°
2026-04-27 14:01 46.10533 -64.67948 242 ft 3 kts 133°
2026-04-27 14:02 46.10545 -64.67971 242 ft 3 kts 118°
2026-04-27 14:02 46.10555 -64.68008 242 ft 3 kts 102°
2026-04-27 14:02 46.10557 -64.68028 242 ft 3 kts 95°
2026-04-27 14:02 46.10557 -64.68054 242 ft 0 kts 88°
2026-04-27 14:03 46.10557 -64.68047 242 ft 0 kts 90°
2026-04-27 14:03 46.10557 -64.68046 242 ft 0 kts 90°
2026-04-27 14:04 46.10557 -64.68044 242 ft 0 kts 90°
2026-04-27 14:04 46.10557 -64.68038 242 ft 1 kts 89°
2026-04-27 14:04 46.10558 -64.68026 242 ft 2 kts 81°
2026-04-27 14:04 46.10561 -64.68002 242 ft 3 kts 80°
2026-04-27 14:05 46.10566 -64.67961 242 ft 5 kts 81°
2026-04-27 14:05 46.10572 -64.67899 242 ft 7 kts 84°
2026-04-27 14:05 46.10576 -64.67816 242 ft 9 kts 87°
2026-04-27 14:05 46.10579 -64.67711 242 ft 11 kts 89°
2026-04-27 14:06 46.10582 -64.67597 242 ft 10 kts 87°
2026-04-27 14:06 46.10584 -64.67497 242 ft 11 kts 88°
2026-04-27 14:06 46.10587 -64.67383 242 ft 12 kts 88°
2026-04-27 14:06 46.10590 -64.67256 242 ft 13 kts 88°
2026-04-27 14:07 46.10594 -64.67120 242 ft 14 kts 87°
2026-04-27 14:07 46.10597 -64.66977 242 ft 15 kts 88°
2026-04-27 14:07 46.10600 -64.66834 242 ft 14 kts 88°
2026-04-27 14:07 46.10603 -64.66696 242 ft 14 kts 88°
2026-04-27 14:08 46.10606 -64.66554 242 ft 14 kts 88°
2026-04-27 14:08 46.10622 -64.66416 242 ft 14 kts 66°
2026-04-27 14:08 46.10687 -64.66336 242 ft 8 kts
2026-04-27 14:08 46.10691 -64.66335 242 ft 0 kts
2026-04-27 14:09 46.10692 -64.66335 242 ft 0 kts
2026-04-27 14:11 46.10694 -64.66335 242 ft 2 kts
2026-04-27 14:11 46.10742 -64.66336 242 ft 7 kts 339°
2026-04-27 14:11 46.10767 -64.66370 242 ft 5 kts 298°
2026-04-27 14:12 46.10771 -64.66388 242 ft 0 kts 278°
2026-04-27 14:12 46.10771 -64.66389 242 ft 0 kts 278°
2026-04-27 14:13 46.10767 -64.66710 242 ft 77 kts 268°
2026-04-27 14:13 46.10744 -64.67949 260 ft 165 kts 268°
2026-04-27 14:13 46.10792 -64.69861 908 ft 210 kts 272°
2026-04-27 14:13 46.11130 -64.72012 2077 ft 223 kts 287°
2026-04-27 14:14 46.11463 -64.73900 3094 ft 210 kts 276°
2026-04-27 14:14 46.11773 -64.75946 4283 ft 210 kts 278°
2026-04-27 14:14 46.12618 -64.77782 5421 ft 217 kts 304°
2026-04-27 14:14 46.13558 -64.79500 6155 ft 242 kts 292°
2026-04-27 14:15 46.13988 -64.81931 5393 ft 253 kts 264°
2026-04-27 14:15 46.13572 -64.84043 6169 ft 200 kts 247°
2026-04-27 14:15 46.13014 -64.86068 5482 ft 229 kts 248°
2026-04-27 14:15 46.12528 -64.88193 5443 ft 217 kts 251°
2026-04-27 14:16 46.12184 -64.90255 5270 ft 213 kts 255°
2026-04-27 14:16 46.11939 -64.92336 5091 ft 209 kts 257°
2026-04-27 14:16 46.11769 -64.94398 4944 ft 204 kts 259°
2026-04-27 14:16 46.11651 -64.96411 4865 ft 197 kts 261°
2026-04-27 14:17 46.11569 -64.98344 4848 ft 190 kts 261°
2026-04-27 14:17 46.11504 -65.00232 4850 ft 189 kts 262°
2026-04-27 14:17 46.11449 -65.02089 5163 ft 179 kts 262°
2026-04-27 14:17 46.11409 -65.03886 5610 ft 182 kts 263°
2026-04-27 14:18 46.11367 -65.05744 6082 ft 189 kts 263°
2026-04-27 14:18 46.11321 -65.07653 6534 ft 192 kts 264°
2026-04-27 14:18 46.11270 -65.09583 6982 ft 194 kts 264°
2026-04-27 14:18 46.11214 -65.11535 7433 ft 196 kts 264°
2026-04-27 14:19 46.11168 -65.13510 7887 ft 198 kts 265°
2026-04-27 14:19 46.11124 -65.15513 8334 ft 202 kts 265°
2026-04-27 14:19 46.11077 -65.17565 8790 ft 210 kts 265°
2026-04-27 14:19 46.11038 -65.19679 9241 ft 216 kts 265°
2026-04-27 14:20 46.11002 -65.21865 9695 ft 219 kts 265°
2026-04-27 14:20 46.10961 -65.24070 10150 ft 221 kts 265°
2026-04-27 14:20 46.10924 -65.26295 10606 ft 222 kts 264°
2026-04-27 14:20 46.10943 -65.28518 11057 ft 222 kts 266°
2026-04-27 14:21 46.10916 -65.30726 11507 ft 219 kts 263°
2026-04-27 14:21 46.10846 -65.32923 11963 ft 218 kts 262°
2026-04-27 14:21 46.10773 -65.35150 12424 ft 230 kts 262°
2026-04-27 14:21 46.10706 -65.37549 12892 ft 246 kts 262°
2026-04-27 14:22 46.10647 -65.40045 13346 ft 260 kts 262°
2026-04-27 14:22 46.10592 -65.42726 13809 ft 273 kts 262°
2026-04-27 14:22 46.10540 -65.45501 14266 ft 279 kts 262°
2026-04-27 14:22 46.10485 -65.48306 14719 ft 282 kts 262°
2026-04-27 14:23 46.10431 -65.51138 15172 ft 285 kts 262°
2026-04-27 14:23 46.10386 -65.54016 15625 ft 287 kts 262°
2026-04-27 14:23 46.10341 -65.56898 16077 ft 288 kts 261°
2026-04-27 14:23 46.10293 -65.59800 16534 ft 290 kts 261°
2026-04-27 14:24 46.10252 -65.62707 16985 ft 291 kts 260°
2026-04-27 14:24 46.10210 -65.65189 17382 ft 291 kts 260°
2026-04-27 14:24 46.10160 -65.68114 17877 ft 292 kts 259°
2026-04-27 14:24 46.10113 -65.71037 18380 ft 292 kts 259°
2026-04-27 14:25 46.10066 -65.73873 18876 ft 294 kts 259°
2026-04-27 14:25 46.10022 -65.76750 19365 ft 294 kts 260°
2026-04-27 14:25 46.09973 -65.79693 19878 ft 294 kts 260°
2026-04-27 14:25 46.09919 -65.82637 20393 ft 295 kts 260°
2026-04-27 14:26 46.09863 -65.85569 20896 ft 296 kts 260°
2026-04-27 14:26 46.09800 -65.88531 21387 ft 297 kts 260°
2026-04-27 14:26 46.09735 -65.91512 21887 ft 297 kts 260°
2026-04-27 14:26 46.09669 -65.94498 22390 ft 298 kts 260°
2026-04-27 14:27 46.09599 -65.97479 22890 ft 299 kts 260°
2026-04-27 14:27 46.09535 -66.00487 23393 ft 300 kts 261°
2026-04-27 14:27 46.09475 -66.03498 23894 ft 302 kts 261°
2026-04-27 14:27 46.09417 -66.06535 24397 ft 303 kts 261°
2026-04-27 14:28 46.09376 -66.08539 24729 ft 303 kts 261°
2026-04-27 14:28 46.09288 -66.12611 25400 ft 305 kts 261°
2026-04-27 14:28 46.09216 -66.15659 25900 ft 306 kts 261°
2026-04-27 14:28 46.09143 -66.18732 26403 ft 307 kts 261°
2026-04-27 14:29 46.09072 -66.21807 26904 ft 308 kts 261°
2026-04-27 14:29 46.08997 -66.24901 27423 ft 309 kts 261°
2026-04-27 14:29 46.08922 -66.27979 27921 ft 311 kts 261°
2026-04-27 14:29 46.08843 -66.31140 28427 ft 312 kts 261°
2026-04-27 14:30 46.08764 -66.34228 28922 ft 313 kts 261°
2026-04-27 14:30 46.08681 -66.37408 29431 ft 315 kts 261°
2026-04-27 14:30 46.08598 -66.40431 29941 ft 317 kts 261°
2026-04-27 14:30 46.08508 -66.43582 30437 ft 322 kts 261°
2026-04-27 14:31 46.08406 -66.46836 30941 ft 329 kts 261°
2026-04-27 14:31 46.08307 -66.50168 31429 ft 337 kts 262°
2026-04-27 14:31 46.08212 -66.53576 31874 ft 343 kts 262°
2026-04-27 14:31 46.08126 -66.56705 32263 ft 349 kts 262°
2026-04-27 14:32 46.08031 -66.60080 32687 ft 354 kts 262°
2026-04-27 14:32 46.07926 -66.63633 33135 ft 358 kts 262°
2026-04-27 14:32 46.07816 -66.67221 33585 ft 359 kts 262°
2026-04-27 14:32 46.07701 -66.70829 34035 ft 360 kts 262°
2026-04-27 14:33 46.07583 -66.74413 34481 ft 362 kts 262°
2026-04-27 14:33 46.07473 -66.78042 34931 ft 363 kts 263°
2026-04-27 14:33 46.07370 -66.81687 35380 ft 364 kts 263°
2026-04-27 14:33 46.07266 -66.85338 35829 ft 365 kts 263°
2026-04-27 14:34 46.07154 -66.89004 36279 ft 366 kts 263°
2026-04-27 14:34 46.07032 -66.92676 36728 ft 367 kts 264°
2026-04-27 14:34 46.06916 -66.96332 37175 ft 368 kts 264°
2026-04-27 14:34 46.06805 -67.00029 37551 ft 371 kts 264°
2026-04-27 14:35 46.06693 -67.03756 37669 ft 374 kts 264°
2026-04-27 14:35 46.06460 -67.11250 37725 ft 374 kts 264°
2026-04-27 14:36 46.06217 -67.18701 37723 ft 373 kts 264°
2026-04-27 14:36 46.05972 -67.26170 37723 ft 372 kts 264°
2026-04-27 14:37 46.05718 -67.33602 37723 ft 372 kts 264°
2026-04-27 14:37 46.05457 -67.41029 37723 ft 371 kts 264°
2026-04-27 14:38 46.05190 -67.48470 37723 ft 371 kts 264°
2026-04-27 14:38 46.04922 -67.55845 37722 ft 371 kts 264°
2026-04-27 14:39 46.04645 -67.63270 37722 ft 371 kts 264°
2026-04-27 14:39 46.04365 -67.70680 37722 ft 370 kts 264°
2026-04-27 14:40 46.04083 -67.78078 37721 ft 370 kts 264°
2026-04-27 14:40 46.03983 -67.85510 37725 ft 372 kts 268°
2026-04-27 14:41 46.04259 -67.92958 37725 ft 373 kts 270°
2026-04-27 14:41 46.04738 -68.00389 37723 ft 373 kts 271°
2026-04-27 14:42 46.05173 -68.07828 37723 ft 372 kts 270°
2026-04-27 14:42 46.05534 -68.15221 37725 ft 372 kts 270°
2026-04-27 14:43 46.05883 -68.22661 37727 ft 373 kts 270°
2026-04-27 14:43 46.06251 -68.30111 37730 ft 373 kts 270°
2026-04-27 14:44 46.06613 -68.37569 37739 ft 373 kts 270°
2026-04-27 14:44 46.06973 -68.45038 37747 ft 374 kts 270°
2026-04-27 14:45 46.07327 -68.52509 37751 ft 374 kts 270°
2026-04-27 14:45 46.07680 -68.59997 37754 ft 375 kts 270°
2026-04-27 14:46 46.08041 -68.67491 37755 ft 376 kts 270°
2026-04-27 14:46 46.08406 -68.74971 37751 ft 376 kts 270°
2026-04-27 14:47 46.08748 -68.82494 37751 ft 377 kts 269°
2026-04-27 14:47 46.09026 -68.88780 37750 ft 378 kts 269°
2026-04-27 14:48 46.09350 -68.96341 37750 ft 379 kts 269°
2026-04-27 14:48 46.09830 -69.07731 37749 ft 380 kts 269°
2026-04-27 14:49 46.10143 -69.15349 37748 ft 380 kts 269°
2026-04-27 14:49 46.10452 -69.22905 37747 ft 380 kts 269°
2026-04-27 14:50 46.10762 -69.30543 37747 ft 381 kts 269°
2026-04-27 14:50 46.11079 -69.38169 37747 ft 381 kts 269°
2026-04-27 14:51 46.11403 -69.45801 37746 ft 382 kts 269°
2026-04-27 14:51 46.11713 -69.53383 37746 ft 381 kts 269°
2026-04-27 14:52 46.11980 -69.61020 37741 ft 381 kts 268°
2026-04-27 14:52 46.12263 -69.68636 37741 ft 381 kts 268°
2026-04-27 14:53 46.12537 -69.76267 37746 ft 381 kts 268°
2026-04-27 14:53 46.12810 -69.83898 37754 ft 381 kts 268°
2026-04-27 14:54 46.13075 -69.91520 37763 ft 380 kts 268°
2026-04-27 14:54 46.13326 -69.98791 37770 ft 380 kts 268°
2026-04-27 14:55 46.13584 -70.06350 37771 ft 380 kts 268°
2026-04-27 14:55 46.13846 -70.13956 37772 ft 380 kts 268°
2026-04-27 14:56 46.14109 -70.21569 37774 ft 380 kts 268°
2026-04-27 14:56 46.14373 -70.29190 37779 ft 380 kts 268°
2026-04-27 14:57 46.14635 -70.36821 37784 ft 380 kts 268°
2026-04-27 14:57 46.14865 -70.44395 37788 ft 380 kts 268°
2026-04-27 14:58 46.15093 -70.52014 37793 ft 381 kts 268°
2026-04-27 14:58 46.15318 -70.59655 37799 ft 382 kts 268°
2026-04-27 14:59 46.15536 -70.67322 37802 ft 383 kts 268°
2026-04-27 14:59 46.15752 -70.75002 37807 ft 384 kts 268°
2026-04-27 15:00 46.15963 -70.82739 37810 ft 386 kts 268°
2026-04-27 15:00 46.16030 -70.90495 37670 ft 389 kts 265°
2026-04-27 15:01 46.15938 -70.94352 37447 ft 388 kts 264°
2026-04-27 15:01 46.15783 -70.98267 37187 ft 384 kts 264°
2026-04-27 15:01 46.15601 -71.02049 36848 ft 383 kts 263°
2026-04-27 15:01 46.15401 -71.05873 36458 ft 381 kts 263°
2026-04-27 15:02 46.15192 -71.09719 36055 ft 379 kts 263°
2026-04-27 15:02 46.14999 -71.13455 35659 ft 376 kts 263°
2026-04-27 15:02 46.14822 -71.17213 35258 ft 373 kts 263°
2026-04-27 15:02 46.14658 -71.20926 34857 ft 369 kts 263°
2026-04-27 15:03 46.14483 -71.24601 34457 ft 366 kts 263°
2026-04-27 15:03 46.14307 -71.28238 34056 ft 362 kts 263°
2026-04-27 15:03 46.14131 -71.31843 33654 ft 358 kts 263°
2026-04-27 15:03 46.13958 -71.35393 33254 ft 354 kts 263°
2026-04-27 15:04 46.13783 -71.38912 32853 ft 350 kts 263°
2026-04-27 15:04 46.13613 -71.42395 32432 ft 346 kts 263°
2026-04-27 15:04 46.13444 -71.45841 31988 ft 343 kts 263°
2026-04-27 15:04 46.13275 -71.49272 31537 ft 340 kts 263°
2026-04-27 15:05 46.13113 -71.52642 31089 ft 336 kts 263°
2026-04-27 15:05 46.12949 -71.55985 30638 ft 332 kts 263°
2026-04-27 15:05 46.12787 -71.59289 30186 ft 328 kts 263°
2026-04-27 15:05 46.12628 -71.62549 29735 ft 324 kts 263°
2026-04-27 15:06 46.12474 -71.65722 29294 ft 319 kts 263°
2026-04-27 15:06 46.12317 -71.68894 28847 ft 315 kts 263°
2026-04-27 15:06 46.12159 -71.72037 28396 ft 312 kts 263°
2026-04-27 15:06 46.11999 -71.75130 27947 ft 309 kts 263°
2026-04-27 15:07 46.11837 -71.78207 27496 ft 306 kts 263°
2026-04-27 15:07 46.11675 -71.81258 27051 ft 303 kts 263°
2026-04-27 15:07 46.11524 -71.84268 26638 ft 299 kts 264°
2026-04-27 15:07 46.11376 -71.87235 26248 ft 296 kts 264°
2026-04-27 15:08 46.11230 -71.90181 25869 ft 293 kts 264°
2026-04-27 15:08 46.11076 -71.93093 25493 ft 291 kts 264°
2026-04-27 15:08 46.10928 -71.95993 25117 ft 289 kts 264°
2026-04-27 15:08 46.10777 -71.98861 24742 ft 287 kts 264°
2026-04-27 15:09 46.10624 -72.01718 24374 ft 285 kts 264°
2026-04-27 15:09 46.10472 -72.04557 24036 ft 282 kts 264°
2026-04-27 15:09 46.10317 -72.07367 23708 ft 280 kts 264°
2026-04-27 15:09 46.10163 -72.10135 23383 ft 278 kts 264°
2026-04-27 15:10 46.10005 -72.12888 23059 ft 277 kts 264°
2026-04-27 15:10 46.09843 -72.15647 22733 ft 276 kts 264°
2026-04-27 15:10 46.09681 -72.18386 22409 ft 275 kts 264°
2026-04-27 15:10 46.09636 -72.19185 22314 ft 275 kts 265°
2026-04-27 15:11 46.09482 -72.21925 21988 ft 274 kts 265°
2026-04-27 15:11 46.09328 -72.24671 21661 ft 273 kts 265°
2026-04-27 15:11 46.09177 -72.27387 21336 ft 272 kts 265°
2026-04-27 15:11 46.09033 -72.30103 21009 ft 271 kts 265°
2026-04-27 15:12 46.08889 -72.32800 20684 ft 270 kts 265°
2026-04-27 15:12 46.08739 -72.35529 20354 ft 269 kts 265°
2026-04-27 15:12 46.08590 -72.38169 20033 ft 268 kts 265°
2026-04-27 15:12 46.08436 -72.40843 19707 ft 267 kts 265°
2026-04-27 15:13 46.08278 -72.43509 19381 ft 266 kts 265°
2026-04-27 15:13 46.08118 -72.46162 19055 ft 265 kts 265°
2026-04-27 15:13 46.07955 -72.48796 18730 ft 264 kts 265°
2026-04-27 15:13 46.07791 -72.51403 18408 ft 263 kts 266°
2026-04-27 15:14 46.07635 -72.54026 18083 ft 263 kts 266°
2026-04-27 15:14 46.07467 -72.56656 17752 ft 262 kts 264°
2026-04-27 15:14 46.07068 -72.59219 17425 ft 262 kts 257°
2026-04-27 15:14 46.06450 -72.61694 17103 ft 264 kts 252°
2026-04-27 15:15 46.05693 -72.64102 16780 ft 265 kts 249°
2026-04-27 15:15 46.04854 -72.66466 16456 ft 265 kts 248°
2026-04-27 15:15 46.03974 -72.68799 16130 ft 264 kts 247°
2026-04-27 15:15 46.03088 -72.71091 15803 ft 259 kts 246°
2026-04-27 15:16 46.02216 -72.73330 15475 ft 253 kts 246°
2026-04-27 15:16 46.01362 -72.75514 15146 ft 248 kts 246°
2026-04-27 15:16 46.00523 -72.77649 14817 ft 243 kts 247°
2026-04-27 15:16 45.99693 -72.79750 14493 ft 239 kts 246°
2026-04-27 15:17 45.98900 -72.81789 14173 ft 234 kts 247°
2026-04-27 15:17 45.98109 -72.83827 13847 ft 231 kts 247°
2026-04-27 15:17 45.97333 -72.85838 13522 ft 229 kts 247°
2026-04-27 15:17 45.96555 -72.87835 13196 ft 228 kts 247°
2026-04-27 15:18 45.95790 -72.89806 12918 ft 225 kts 248°
2026-04-27 15:18 45.95033 -72.91769 12667 ft 224 kts 247°
2026-04-27 15:18 45.94261 -72.93736 12417 ft 226 kts 247°
2026-04-27 15:18 45.93491 -72.95709 12168 ft 227 kts 248°
2026-04-27 15:19 45.92722 -72.97694 11917 ft 228 kts 247°
2026-04-27 15:19 45.91938 -72.99689 11664 ft 230 kts 247°
2026-04-27 15:19 45.91155 -73.01690 11413 ft 230 kts 248°
2026-04-27 15:19 45.90390 -73.03672 11163 ft 230 kts 248°
2026-04-27 15:20 45.89982 -73.04725 11034 ft 230 kts 248°
2026-04-27 15:20 45.89223 -73.06689 10788 ft 231 kts 248°
2026-04-27 15:20 45.88759 -73.07887 10638 ft 231 kts 248°
2026-04-27 15:20 45.88096 -73.09593 10429 ft 231 kts 248°
2026-04-27 15:21 45.87488 -73.11820 10168 ft 226 kts 261°
2026-04-27 15:21 45.87228 -73.14032 9924 ft 224 kts 268°
2026-04-27 15:21 45.87132 -73.16260 9679 ft 223 kts 272°
2026-04-27 15:21 45.87128 -73.18461 9434 ft 222 kts 274°
2026-04-27 15:22 45.87174 -73.20679 9183 ft 222 kts 276°
2026-04-27 15:22 45.87248 -73.22890 8927 ft 221 kts 277°
2026-04-27 15:22 45.87333 -73.25092 8679 ft 220 kts 277°
2026-04-27 15:22 45.87436 -73.27279 8429 ft 219 kts 278°
2026-04-27 15:23 45.87535 -73.29231 8203 ft 218 kts 278°
2026-04-27 15:23 45.87635 -73.31214 7972 ft 217 kts 278°
2026-04-27 15:23 45.87731 -73.33161 7746 ft 217 kts 278°
2026-04-27 15:23 45.87834 -73.35303 7500 ft 215 kts 278°
2026-04-27 15:24 45.87932 -73.37422 7247 ft 214 kts 278°
2026-04-27 15:24 45.88021 -73.39408 7016 ft 213 kts 278°
2026-04-27 15:24 45.88123 -73.41549 6764 ft 212 kts 279°
2026-04-27 15:24 45.88232 -73.43634 6517 ft 211 kts 279°
2026-04-27 15:25 45.88344 -73.45729 6269 ft 210 kts 279°
2026-04-27 15:25 45.88451 -73.47823 6014 ft 209 kts 279°
2026-04-27 15:25 45.88502 -73.49898 5740 ft 212 kts 271°
2026-04-27 15:25 45.88026 -73.51932 5513 ft 217 kts 252°
2026-04-27 15:26 45.87239 -73.53798 5270 ft 220 kts 244°
2026-04-27 15:26 45.86327 -73.55578 5019 ft 221 kts 241°
2026-04-27 15:26 45.85365 -73.57281 4771 ft 220 kts 239°
2026-04-27 15:26 45.84423 -73.58866 4551 ft 218 kts 237°
2026-04-27 15:27 45.83385 -73.60555 4404 ft 212 kts 237°
2026-04-27 15:27 45.82407 -73.62095 4269 ft 208 kts 236°
2026-04-27 15:27 45.81442 -73.63600 4079 ft 207 kts 236°
2026-04-27 15:27 45.80468 -73.65134 3877 ft 208 kts 236°
2026-04-27 15:28 45.79490 -73.66662 3681 ft 208 kts 235°
2026-04-27 15:28 45.78516 -73.68180 3505 ft 207 kts 235°
2026-04-27 15:28 45.77609 -73.69743 3318 ft 195 kts 245°
2026-04-27 15:28 45.77415 -73.71525 3202 ft 176 kts 281°
2026-04-27 15:29 45.77971 -73.73118 3177 ft 181 kts 301°
2026-04-27 15:29 45.78740 -73.74539 3061 ft 177 kts 306°
2026-04-27 15:29 45.79514 -73.75810 3032 ft 162 kts 308°
2026-04-27 15:29 45.80214 -73.76899 3033 ft 153 kts 308°
2026-04-27 15:30 45.80932 -73.78003 3038 ft 151 kts 308°
2026-04-27 15:30 45.81515 -73.79217 2934 ft 149 kts 288°
2026-04-27 15:30 45.81362 -73.80605 3140 ft 125 kts 251°
2026-04-27 15:30 45.81116 -73.81796 3757 ft 150 kts 272°
2026-04-27 15:31 45.81553 -73.83272 3547 ft 165 kts 306°
2026-04-27 15:31 45.82344 -73.84356 3408 ft 151 kts 312°
2026-04-27 15:31 45.82926 -73.85511 3333 ft 136 kts 296°
2026-04-27 15:31 45.83363 -73.86751 3215 ft 144 kts 294°
2026-04-27 15:32 45.83804 -73.88003 3090 ft 141 kts 294°
2026-04-27 15:32 45.84248 -73.89247 3029 ft 139 kts 294°
2026-04-27 15:32 45.84693 -73.90482 3035 ft 140 kts 294°
2026-04-27 15:32 45.85146 -73.91716 3035 ft 141 kts 295°
2026-04-27 15:33 45.85934 -73.92660 2846 ft 165 kts 328°
2026-04-27 15:33 45.87019 -73.92932 3190 ft 140 kts 344°
2026-04-27 15:33 45.87674 -73.93019 3812 ft 146 kts 344°
2026-04-27 15:33 45.88830 -73.93221 3957 ft 179 kts 345°
2026-04-27 15:34 45.90004 -73.93442 3725 ft 165 kts 344°
2026-04-27 15:34 45.91056 -73.93899 3516 ft 154 kts 327°
2026-04-27 15:34 45.92122 -73.94254 3318 ft 173 kts 351°
2026-04-27 15:34 45.93250 -73.93432 3130 ft 194 kts 36°
2026-04-27 15:35 45.93817 -73.91610 3100 ft 211 kts 79°
2026-04-27 15:35 45.93531 -73.89555 3065 ft 214 kts 118°
2026-04-27 15:35 45.92657 -73.88019 3502 ft 191 kts 140°
2026-04-27 15:35 45.91667 -73.86554 3596 ft 215 kts 141°
2026-04-27 15:36 45.90634 -73.85039 3312 ft 206 kts 141°
2026-04-27 15:36 45.89671 -73.83604 3144 ft 200 kts 141°
2026-04-27 15:36 45.88711 -73.82199 3023 ft 193 kts 144°
2026-04-27 15:36 45.87539 -73.81485 2789 ft 179 kts 184°
2026-04-27 15:37 45.86539 -73.81650 3688 ft 123 kts 203°
2026-04-27 15:37 45.85625 -73.81827 4558 ft 155 kts 203°
2026-04-27 15:37 45.84404 -73.82155 3670 ft 196 kts 202°
2026-04-27 15:37 45.83027 -73.82578 2360 ft 198 kts 202°
2026-04-27 15:38 45.82092 -73.83458 2479 ft 141 kts 240°
2026-04-27 15:38 45.82011 -73.84810 2739 ft 145 kts 284°
2026-04-27 15:38 45.82724 -73.85733 2953 ft 181 kts 340°
2026-04-27 15:38 45.83744 -73.84525 2603 ft 215 kts 78°
2026-04-27 15:39 45.82848 -73.83593 1444 ft 192 kts 206°
2026-04-27 15:39 45.82474 -73.84851 2090 ft 143 kts 279°
2026-04-27 15:39 45.83485 -73.85605 1894 ft 190 kts
2026-04-27 15:39 45.84487 -73.84915 2996 ft 153 kts 19°
2026-04-27 15:40 45.85421 -73.83725 3458 ft 213 kts 39°
2026-04-27 15:40 45.86066 -73.81683 2384 ft 233 kts 76°
2026-04-27 15:40 45.86105 -73.79606 2529 ft 171 kts 87°
2026-04-27 15:40 45.86613 -73.77949 2850 ft 205 kts 50°
2026-04-27 15:41 45.87777 -73.76883 2751 ft 185 kts
2026-04-27 15:41 45.89028 -73.76883 2753 ft 182 kts 347°
2026-04-27 15:41 45.90276 -73.77108 2608 ft 177 kts 345°
2026-04-27 15:41 45.91461 -73.77336 2514 ft 171 kts 344°
2026-04-27 15:42 45.92630 -73.77561 2495 ft 167 kts 344°
2026-04-27 15:42 45.93764 -73.77839 2473 ft 162 kts 338°
2026-04-27 15:42 45.94678 -73.78712 2462 ft 148 kts 316°
2026-04-27 15:42 45.95704 -73.79176 2691 ft 180 kts 347°
2026-04-27 15:43 45.96950 -73.78528 2604 ft 200 kts 27°
2026-04-27 15:43 45.97731 -73.76839 2460 ft 212 kts 68°
2026-04-27 15:43 45.97666 -73.74770 2533 ft 204 kts 110°
2026-04-27 15:43 45.96782 -73.73202 2606 ft 207 kts 148°
2026-04-27 15:44 45.95484 -73.72676 2537 ft 185 kts 188°
2026-04-27 15:44 45.94310 -73.73172 2530 ft 173 kts 211°
2026-04-27 15:44 45.93213 -73.73843 2491 ft 168 kts 212°
2026-04-27 15:44 45.92154 -73.74489 2492 ft 163 kts 212°
2026-04-27 15:45 45.91117 -73.75091 2486 ft 161 kts 211°
2026-04-27 15:45 45.90069 -73.75691 2496 ft 160 kts 211°
2026-04-27 15:45 45.89053 -73.76275 2499 ft 159 kts 211°
2026-04-27 15:45 45.88028 -73.76862 2504 ft 159 kts 211°
2026-04-27 15:46 45.87168 -73.77756 2368 ft 153 kts 238°
2026-04-27 15:46 45.87053 -73.79178 2410 ft 136 kts 283°
2026-04-27 15:46 45.87273 -73.80387 3382 ft 134 kts 275°
2026-04-27 15:46 45.86888 -73.81859 3391 ft 178 kts 245°
2026-04-27 15:47 45.85826 -73.82806 2925 ft 186 kts 206°
2026-04-27 15:47 45.84533 -73.82588 2919 ft 181 kts 173°
2026-04-27 15:47 45.83347 -73.82201 3461 ft 182 kts 184°
2026-04-27 15:47 45.82130 -73.82713 3132 ft 174 kts 221°
2026-04-27 15:48 45.81571 -73.84043 2902 ft 151 kts 261°
2026-04-27 15:48 45.81860 -73.85444 2771 ft 146 kts 297°
2026-04-27 15:48 45.82376 -73.86677 2778 ft 147 kts 295°
2026-04-27 15:49 45.83308 -73.89194 2510 ft 137 kts 294°
2026-04-27 15:49 45.83742 -73.90365 2501 ft 134 kts 294°